Regional Weather Roundup
Issued by NWS

Home | Current Version | Previous Version | Graphics & Text | Print | Product List | Glossary Off
Versions: 1 2 3 4 5 6 7 8 9 10 11 12 13 14 15 16 17 18 19 20 21 22 23 24 25 26 27 28 29 30 31 32 33 34 35 36 37 38 39 40 41 42 43 44 45 46 47 48 49 50

000
ASUS43 KMPX 221201
RWRMN
WEATHER ROUNDUP FOR MINNESOTA
NATIONAL WEATHER SERVICE TWIN CITIES/CHANHASSEN MN
600 AM CST SAT NOV 22 2014


NOTE: "FAIR" INDICATES FEW OR NO CLOUDS BELOW 12,000 FEET WITH NO
SIGNIFICANT WEATHER AND/OR OBSTRUCTIONS TO VISIBILITY. N/A MEANS
CURRENT SKY AND/OR WEATHER CONDITIONS ARE NOT AVAILABLE.

MNZ060>063-068>070-221300-
   Twin Cities Metro

CITY           SKY/WX    TMP DP  RH WIND       PRES   REMARKS
TWIN CITIES    CLOUDY    36  32  85 S9        29.79F FOG
6HR MIN TEMP:  34; 6HR MAX TEMP:  36;

ST PAUL        CLOUDY    36  33  89 S8        29.81F FOG
CRYSTAL        CLOUDY    37  33  85 S9        29.77S FOG
LAKEVILLE      CLOUDY    34  34 100 SW7       29.79F FOG     WCI  28
EDEN PRAIRIE   CLOUDY    36  33  89 S10       29.77F FOG
6HR MIN TEMP:  34; 6HR MAX TEMP:  36;

SOUTH ST PAUL  CLOUDY    37  33  87 S7        29.80F FOG
LAKE ELMO      CLOUDY    36  34  93 SW10      29.80F FOG
$$
MNZ001>005-007-008-013>017-022>024-027-028-221300-
   Northwest Minnesota

CITY           SKY/WX    TMP DP  RH WIND       PRES   REMARKS
BEMIDJI        FOG       22  21  96 CALM      29.62F VSB 1
HALLOCK        CLOUDY    30  28  93 S3        29.60R
ROSEAU         CLOUDY    34  28  80 CALM      29.60S
WARROAD        CLOUDY    30  27  86 CALM      29.60S
THIEF RVR FALL PTCLDY    25  21  86 S7        29.62R WCI  17
CROOKSTON      PTCLDY    21  21 100 S7        29.64R WCI  13
FOSSTON        CLEAR     21  19  93 S9        29.63F WCI  11
DETROIT LAKES  CLEAR     28  28 100 S3        29.66S
MOORHEAD       CLEAR     25  25 100 S9        29.66S WCI  15
PARK RAPIDS    PTCLDY    25  23  92 CALM      29.65S
MAHNOMEN       FAIR      27  24  88 S10       29.63S WCI  17
$$
MNZ006-009>011-018-025>026-221300-
   North Central Minnesota

CITY           SKY/WX    TMP DP  RH WIND       PRES   REMARKS
BAUDETTE       CLOUDY    32  27  81 CALM      29.60R
FLAG ISLAND    CLOUDY    30  27  86 NW3       29.58S
INTL FALLS     CLOUDY    30  26  85 SW6       29.60S WCI  24
6HR MIN TEMP:  27; 6HR MAX TEMP:  30;

WASKISH        CLOUDY    34  30  86 CALM      29.62S
BIG FORK       CLOUDY    30  27  86 S6        29.63S WCI  24
LONGVILLE      MOCLDY    27  25  93 CALM      29.66S
GRAND RAPIDS   MOCLDY    25  21  86 S5        29.64F WCI  19
CRANE LAKE     MOCLDY    27  25  93 S5        29.64R WCI  21
ORR            CLOUDY    27  23  86 S5        29.60S WCI  21
COOK           CLOUDY    28  25  86 SW7       29.64R WCI  21
WALKER         FAIR      26  24  91 SW7       29.64S WCI  18
$$
MNZ012-019>021-037-221300-
   Northeast Minnesota

CITY           SKY/WX    TMP DP  RH WIND       PRES   REMARKS
DULUTH         PTCLDY    29  25  85 SW15      29.67S FOG     WCI  18
6HR MIN TEMP:  27; 6HR MAX TEMP:  29;

ELY            MOCLDY    27  25  93 SW8       29.63S WCI  18
HIBBING        MOCLDY    24  21  88 CALM      29.66S FOG
EVELETH        CLOUDY    28  27  93 SW6       29.67S WCI  22
DULUTH HARBOR  PTCLDY    30  27  86 SW10      29.71S WCI  21
TWO HARBORS    PTCLDY    27  21  80 W3        29.67S HAZE
SILVER BAY     PTCLDY    23  21  93 CALM      29.66S FOG
GRAND MARAIS     N/A     30  24  78 VRB6      29.67R WCI  24
G MARAIS ARPRT MOCLDY    19  16  86 SW3       29.60S
$$
MNZ029>031-032-039>041-046>048-054>057-064-221300-
   West Central Minnesota

CITY           SKY/WX    TMP DP  RH WIND       PRES   REMARKS
FERGUS FALLS   CLEAR     25  21  86 SE8       29.70F WCI  16
WHEATON        CLEAR     23  21  93 S8        29.70F WCI  14
MORRIS         CLEAR     25  23  93 S6        29.69S WCI  18
ALEXANDRIA     CLEAR     28  25  88 SW8       29.69F WCI  20
ELBOW LAKE       N/A     24  23  95 SE8       29.68F WCI  15
WADENA         CLEAR     21  21 100 CALM      29.66F FOG
GLENWOOD       CLEAR     25  25 100 S5        29.70F FOG     WCI  19
APPLETON       CLEAR     28  25  86 S8        29.71F WCI  20
BENSON         CLEAR     23  21  93 S5        29.71F FOG     WCI  17
ORTONVILLE     CLEAR     27  23  86 S5        29.69F WCI  21
MADISON        CLEAR     30  28  93 SW8       29.71F WCI  23
WILLMAR        FAIR      25  21  86 S3        29.74F FOG
$$
MNZ033>034-036-042>043-049>051-058-059-221300-
   Central Minnesota

CITY           SKY/WX    TMP DP  RH WIND       PRES   REMARKS
ST CLOUD       PTCLDY    24  22  91 SE3       29.73S FOG
6HR MIN TEMP:  24; 6HR MAX TEMP:  32;

SAUK CENTRE    FAIR      25  24  94 CALM      29.71F
PAYNESVILLE    PTCLDY    25  25  99 CALM      29.72F
AITKIN         PTCLDY    28  25  86 S6        29.67S HAZE    WCI  22
PINE RIVER     MOCLDY    21  21 100 CALM      29.70F FOG
BRAINERD       PTCLDY    24  23  96 S6        29.69F FOG     WCI  17
STAPLES        CLEAR     21  21 100 S5        29.67F FOG     WCI  15
LONG PRAIRIE   FAIR      21  21 100 S5        29.70F FOG     WCI  15
LITTLE FALLS     N/A     27  23  86 SE3       29.71F FOG
LITCHFIELD     PTCLDY    30  28  93 SW6       29.75S WCI  24
BUFFALO        PTCLDY    32  30  92 S9        29.76F FOG     WCI  24
MAPLE LAKE     PTCLDY    31  30  95 S6        29.75S FOG     WCI  25
$$
MNZ037-044-045-052-053-221300-
   East Central Minnesota

CITY           SKY/WX    TMP DP  RH WIND       PRES   REMARKS
PRINCETON      PTCLDY    32  28  86 S6        29.75S FOG     WCI  26
MORA             N/A    N/A N/A N/A MISG        N/A
CAMBRIDGE      PTCLDY    34  27  75 S8        29.73F HAZE    WCI  27
RUSH CITY      PTCLDY    32  30  92 S6        29.75S WCI  26
MOOSE LAKE     PTCLDY    28  27  93 SW8       29.69F FOG     WCI  20
HINCKLEY       FAIR      28  28 100 CALM      29.73F FOG
CLOQUET        PTCLDY    27  25  93 SW9       29.68S FOG     WCI  17
MCGREGOR       MOCLDY    28  27  93 S5        29.69S WCI  23
$$
MNZ071>073-080-081-089-090-097-098-221300-
   Southwest Minnesota

CITY           SKY/WX    TMP DP  RH WIND       PRES   REMARKS
MONTEVIDEO     CLEAR     28  27  93 SW8       29.74S WCI  20
GRANITE FALLS  PTCLDY    24  22  91 S8        29.75F WCI  16
CANBY          FAIR      33  29  86 SW15G22   29.73F WCI  23
MARSHALL       PTCLDY    34  27  75 SW16      29.74F WCI  23
REDWOOD FALLS  PTCLDY    27  24  89 S8        29.76F FOG     WCI  19
OLIVIA         PTCLDY    30  28  93 S5        29.74F WCI  25
PIPESTONE      SNOW      28  28 100 S7        29.75F VSB 1/4 WCI  21
WINDOM         FOG       34  34 100 S15       29.77F VSB 3/4 WCI  24
WORTHINGTON    CLOUDY    34  34 100 SW18      29.78F VSB 1/4 WCI  23
JACKSON        FOG       34  32  93 SW16      29.79F VSB 1   WCI  23
TRACY          PTCLDY    33  32  97 SW18      29.75F FOG     WCI  21
SLAYTON        FOG       32  32 100 SW13      29.76F VSB 1/2 WCI  22
$$
MNZ065>067-074>077-082>085-091>093-221300-
   South Central Minnesota

CITY           SKY/WX    TMP DP  RH WIND       PRES   REMARKS
MANKATO        CLOUDY    36  30  80 S12       29.80F VSB 3/4
NEW ULM          N/A     34  34 100 SW13      29.78F FOG     WCI  25
ST JAMES       CLOUDY    36  34  93 S8        29.81S FOG
FAIRMONT       CLOUDY    36  32  87 SW10      29.81F
GLENCOE        CLOUDY    32  32  99 S12       29.77S FOG     WCI  23
FARIBAULT      FOG       36  34  93 S9G17     29.81F VSB 1
OWATONNA       FOG       36  34  93 S12       29.83S VSB 1
WASECA         FOG       34  32  93 S12       29.83F VSB 3/4 WCI  25
ALBERT LEA     FOG       36  36 100 S7        29.83S VSB 1/2
$$
MNZ078>079-086>088-094>096-221300-
   Southeast Minnesota

CITY           SKY/WX    TMP DP  RH WIND       PRES   REMARKS
ROCHESTER      FOG       33  32  96 SW16      29.84F VSB 1/2 WCI  23
6HR MIN TEMP:  31; 6HR MAX TEMP:  33;

RED WING         N/A     36  34  93 S6        29.82F FOG
STANTON        CLOUDY    36  33  90 SW10      29.80F FOG
DODGE CENTER   SNOW      34  34 100 SW14      29.83S VSB 1/2 WCI  24
WINONA         CLOUDY    36  34  93 SW8       29.88S FOG
AUSTIN         SNOW      34  34 100 S8        29.85S VSB 1/4 WCI  27
PRESTON        FOG       33  32  98 SW14      29.86S VSB 3/4 WCI  23
$$
ABBREVIATIONS USED IN REMARKS
   TC - TEMPERATURES IN CELSIUS
  WCI - WIND CHILL INDEX
   HX - HEAT INDEX
  VSB - VISIBILITY
$$


USA.gov is the U.S. government's official web portal to all federal, state and local government web resources and services.